Wind_Speed
16 16 13 8 8 12 13 13 12 11 10 9 9 8 8 9 7 7 9 13 15 14 14 15 15 15 15 17 23 29 33 33 34 33 32 32 31 31 33 35 36 37 39 42 43 45 46 46 47 47 46 46 45 44 43 41 40 39 37 37 36 34 32 30 26 21 16 12 11 12 11 10 10 8 7 8 8 11 13 15 15 15 15 15 15 16 15
14 15 14 9 8 8 11 12 9 7 7 8 9 8 9 12 9 8 14 17 16 15 16 18 17 17 20 23 26 29 31 31 31 31 32 31 31 32 33 34 36 37 38 39 41 44 46 46 47 46 46 46 45 44 43 41 39 38 36 35 34 33 32 30 24 20 17 13 13 15 14 11 11 10 10 11 12 13 14 14 15 15 15 15 15 14 14
11 13 12 9 8 8 8 7 5 5 4 4 4 5 6 7 5 5 14 16 11 9 9 11 12 15 19 20 21 24 28 30 31 31 32 31 31 32 32 33 34 35 36 38 40 42 44 46 46 47 46 46 45 44 43 42 40 38 35 33 32 32 32 29 24 21 17 14 15 17 15 12 12 12 12 14 15 15 15 16 16 15 15 14 14 13 13
7 8 7 7 7 7 7 5 4 5 4 1 2 2 4 5 3 4 10 11 9 8 5 7 8 12 15 15 18 22 26 30 32 32 31 32 32 31 31 32 34 35 36 37 39 40 42 44 46 47 46 46 45 44 44 42 40 38 36 34 32 32 30 28 25 22 18 15 16 17 15 14 15 15 15 17 18 17 17 17 16 15 15 14 14 13 13
5 5 7 8 5 5 2 5 4 4 6 5 4 3 2 2 5 8 7 9 7 5 7 9 7 8 11 13 18 23 24 26 29 30 29 29 29 29 30 31 31 33 34 36 36 36 37 40 43 45 45 45 45 45 44 42 40 38 37 36 34 32 30 29 27 21 15 14 15 17 16 16 17 17 18 20 20 19 18 17 17 17 16 15 15 15 14
5 5 5 6 4 4 3 6 2 4 8 10 8 4 2 1 2 6 6 6 5 6 8 9 7 8 12 17 21 25 24 23 22 21 21 22 24 26 28 29 30 31 32 33 33 33 34 36 39 41 43 45 44 44 43 42 40 39 38 37 36 33 31 31 28 21 15 14 15 17 19 19 20 21 21 22 22 21 20 19 19 19 18 17 16 16 15
4 2 5 5 4 4 5 6 2 6 10 12 10 6 4 5 5 7 8 8 10 10 11 13 12 10 14 19 21 22 22 21 19 18 17 17 17 18 20 23 25 28 29 30 32 32 32 34 37 40 43 43 43 43 43 43 42 40 39 38 37 36 34 33 30 24 20 16 15 17 21 22 23 24 24 24 23 23 22 21 21 20 19 18 18 17 16
2 2 5 4 6 5 5 3 2 6 7 8 9 7 8 9 5 6 8 7 9 13 18 22 22 19 17 17 17 18 17 14 14 13 13 13 13 12 12 13 15 18 22 25 27 28 30 34 37 40 40 41 41 42 42 43 43 42 40 38 38 37 35 34 31 27 24 20 18 20 23 24 25 26 26 26 25 24 24 23 22 21 20 20 19 18 16
2 4 3 1 1 4 6 5 3 1 2 5 7 6 5 8 8 4 7 9 7 10 17 24 26 24 17 11 9 14 14 9 8 8 9 11 11 10 10 9 9 10 13 18 21 24 27 32 36 38 39 39 41 41 42 42 43 42 41 38 38 37 34 33 32 29 26 24 21 21 24 25 26 27 27 27 26 25 25 24 23 23 23 22 21 20 18
1 4 4 3 4 3 3 6 7 4 3 10 11 6 3 6 11 9 4 11 10 8 12 19 23 20 12 4 5 11 11 7 6 9 11 11 10 8 8 8 9 10 11 13 17 22 26 31 35 36 36 38 40 41 42 42 42 42 41 39 39 36 32 32 34 32 29 27 24 22 24 25 25 27 28 28 27 26 26 26 25 24 24 24 25 25 23
2 5 4 2 3 2 4 6 8 6 2 9 9 7 3 6 12 11 0 10 12 11 14 18 17 13 7 3 6 8 10 6 5 9 12 12 10 8 7 7 9 10 11 12 15 20 26 30 33 35 37 39 41 41 42 43 43 43 42 41 39 33 29 31 34 33 29 26 22 20 22 23 24 27 29 29 28 27 27 28 27 27 26 27 28 29 27
2 4 3 2 3 1 3 5 9 10 3 7 8 5 3 8 11 8 5 8 9 12 16 15 9 6 6 6 4 6 9 6 5 8 10 9 7 6 5 7 10 10 10 11 13 18 23 27 30 31 32 36 40 41 42 45 46 43 41 39 36 31 29 30 33 31 26 20 18 19 22 23 25 28 29 29 30 29 28 28 28 29 29 30 29 29 27
3 4 3 1 0 1 3 7 13 15 8 8 7 3 5 5 9 13 16 15 15 17 18 15 10 7 9 10 9 9 8 5 4 6 7 7 5 5 6 9 11 10 9 9 11 14 19 24 27 26 24 29 34 36 38 42 42 38 36 34 31 27 26 28 29 25 20 17 19 22 25 26 27 29 30 31 32 30 27 28 30 30 31 31 30 28 27
2 3 3 1 1 1 8 14 15 12 6 4 3 5 4 6 13 19 22 23 24 25 23 19 16 15 16 17 15 13 10 7 6 3 4 5 5 6 8 10 10 10 10 10 11 14 17 23 28 27 25 28 31 29 31 34 33 29 27 27 24 22 23 23 22 19 18 19 23 25 27 27 29 30 30 32 33 30 26 26 29 31 32 32 31 30 28
2 2 3 3 2 6 15 15 8 7 5 4 9 10 9 13 20 22 23 22 23 24 23 20 18 17 18 18 17 16 14 10 6 3 4 6 7 8 9 10 11 10 11 12 14 17 20 24 27 27 27 30 30 26 29 32 27 21 20 20 19 19 19 18 17 18 19 21 23 25 26 27 28 29 29 31 32 28 24 24 27 29 30 30 30 31 29
3 2 2 2 5 7 17 15 6 8 10 6 10 11 11 15 22 24 23 21 19 20 20 19 17 17 17 16 14 14 14 10 4 4 5 6 9 10 12 13 14 13 12 12 14 17 21 24 26 26 25 28 26 23 28 32 29 22 19 19 19 18 17 16 16 18 19 20 21 22 23 25 26 27 27 27 25 22 21 21 23 25 27 27 28 30 29
3 4 3 3 2 9 23 26 19 21 25 20 17 16 14 14 17 19 20 18 16 15 15 16 16 16 14 13 12 13 12 9 3 2 5 8 11 13 14 14 14 12 11 10 12 15 19 23 25 24 23 23 22 21 25 31 29 23 20 20 19 16 14 14 15 16 16 16 17 17 18 19 20 21 21 19 17 16 17 18 20 23 25 26 27 28 28
4 6 3 1 4 13 25 30 29 30 32 29 28 27 24 21 19 17 17 16 14 12 10 11 14 14 12 12 13 13 11 8 5 2 5 9 11 13 13 12 12 12 10 10 11 14 18 21 23 22 22 23 23 21 24 26 25 22 19 18 15 13 13 13 13 13 13 13 12 13 13 14 15 15 15 13 13 13 14 15 17 20 22 23 24 24 24
4 3 3 3 6 11 17 23 26 27 28 26 27 27 26 26 26 22 17 16 14 12 12 13 12 12 12 13 13 12 10 8 6 4 6 9 12 13 13 13 13 14 13 13 14 16 19 21 20 20 22 23 22 21 21 21 21 18 15 12 11 10 10 10 10 11 11 11 11 11 11 12 13 13 13 13 13 12 13 14 16 17 18 19 20 20 21
4 3 4 2 10 13 13 14 15 18 20 19 19 20 20 20 22 21 18 16 15 13 13 12 12 12 13 13 12 11 10 9 6 5 7 10 12 14 15 16 15 16 15 15 16 18 20 21 20 19 22 23 24 24 22 18 16 14 10 6 6 7 8 10 11 10 10 10 9 9 9 10 11 12 13 13 13 13 13 15 15 15 16 17 18 19 20
3 2 3 4 9 11 10 10 9 9 9 10 13 14 14 14 16 18 20 19 18 15 12 7 8 10 11 11 11 10 9 8 7 7 8 11 13 15 17 17 16 15 15 16 17 19 21 20 18 19 24 24 22 22 19 13 11 9 5 2 5 9 11 11 11 9 9 9 9 9 10 10 11 12 13 14 14 13 14 15 16 15 16 16 17 17 18
2 2 4 5 5 3 3 7 8 5 2 3 7 10 11 11 11 14 17 16 15 13 11 9 11 12 11 9 9 8 8 7 7 7 8 10 14 16 17 17 15 14 15 17 19 19 20 19 17 19 23 21 19 20 18 12 8 4 6 7 7 11 12 11 11 10 10 10 10 10 11 12 13 13 14 14 14 13 14 15 15 15 16 16 16 16 16
2 4 9 9 8 6 5 8 11 9 7 8 12 14 11 7 5 7 12 16 15 13 11 11 13 14 11 9 7 6 5 5 5 5 6 9 12 14 16 16 14 13 14 17 18 19 20 20 19 19 22 24 24 21 16 12 9 4 9 11 11 12 12 12 12 11 11 11 11 11 12 13 14 14 13 13 13 13 13 13 14 14 16 17 16 15 15
6 10 13 13 12 11 11 14 17 16 14 13 13 12 10 7 6 7 10 13 16 15 13 13 14 13 11 10 8 5 3 2 2 3 4 6 9 13 14 14 13 13 14 17 19 19 20 21 20 21 23 24 21 15 11 11 10 10 13 13 14 15 14 13 12 11 11 12 12 13 13 14 13 13 12 11 10 11 11 12 13 13 14 15 15 15 15
15 17 19 20 20 19 17 18 18 16 14 12 12 11 10 9 8 8 8 10 13 14 14 14 14 12 8 9 10 7 5 4 2 2 4 7 10 12 13 13 13 13 14 17 19 20 20 21 20 19 18 16 13 11 13 15 15 14 14 16 16 15 13 11 11 11 13 13 13 14 14 13 12 12 10 9 9 9 10 11 12 12 14 15 15 15 14
22 25 26 26 24 21 19 17 16 16 14 12 12 11 11 10 8 7 7 9 11 13 15 16 16 15 11 7 10 11 8 6 6 5 6 9 11 12 13 13 13 13 15 18 20 19 20 19 16 15 14 13 13 16 20 21 17 15 17 16 13 11 10 11 12 13 14 14 14 14 13 12 11 10 9 9 9 10 10 11 11 12 14 15 15 13 11
24 24 24 23 20 20 20 19 17 16 14 12 12 11 10 9 8 6 6 7 9 12 15 17 17 17 15 10 7 11 9 6 7 8 9 9 11 12 13 14 13 14 16 18 17 17 17 17 15 15 16 16 17 19 20 20 19 18 17 13 10 9 11 12 14 16 15 14 14 14 13 12 11 10 10 11 11 11 11 11 11 12 14 15 13 11 8
28 26 24 21 18 18 20 19 16 15 14 14 14 12 10 9 9 9 10 11 11 12 14 16 17 16 16 15 9 8 10 9 10 11 10 10 11 12 13 13 14 15 15 14 14 15 16 15 15 14 14 14 14 16 18 19 19 17 13 10 10 11 13 14 15 15 14 14 14 14 13 12 12 11 11 12 12 13 13 12 12 13 15 14 11 8 7
27 26 25 23 20 17 16 15 15 15 14 13 13 14 14 13 13 14 15 14 15 16 15 16 16 14 13 14 13 10 8 10 12 13 11 11 12 14 14 13 13 14 14 13 14 16 18 17 14 12 11 12 15 16 17 17 15 13 11 10 11 12 12 13 14 14 14 15 15 14 14 13 13 12 12 12 13 13 13 12 13 13 14 13 10 8 7
22 20 20 20 18 15 14 15 16 16 15 13 12 14 15 15 15 16 15 15 16 17 17 16 16 15 13 12 12 13 12 10 10 12 15 16 16 17 16 15 15 16 17 17 17 19 21 19 14 12 14 15 14 13 13 13 12 11 10 11 11 11 12 14 15 15 15 16 15 14 13 12 12 11 11 11 11 11 11 12 12 12 12 11 9 8 7
17 16 16 17 17 16 15 14 13 13 14 13 13 14 14 15 16 16 16 16 16 17 17 17 18 17 17 15 14 13 14 14 13 12 13 17 20 20 19 18 18 19 21 22 22 22 21 18 16 17 18 17 15 14 11 9 10 11 11 12 13 13 13 14 14 15 15 14 13 12 11 11 11 11 11 10 9 9 9 10 10 11 11 11 10 9 7
12 14 16 18 20 19 17 15 14 13 14 14 14 14 14 15 16 16 16 17 17 17 17 18 19 20 20 20 18 16 15 16 16 14 11 12 17 20 20 19 19 20 22 24 25 25 23 21 20 20 21 21 20 17 12 11 13 14 14 15 14 13 12 12 12 12 13 12 12 11 11 11 11 11 10 9 7 7 8 9 9 10 10 11 11 11 9
13 15 16 17 19 20 18 16 15 14 13 13 14 14 14 14 14 15 15 15 16 16 17 18 19 21 22 23 22 20 18 18 18 17 14 12 12 15 17 19 20 20 21 22 23 24 24 21 20 20 21 21 20 18 17 17 19 18 17 16 13 11 11 11 11 12 13 13 12 12 11 10 10 9 8 7 6 7 8 9 9 8 8 9 11 11 10
14 13 11 11 12 13 14 14 14 14 13 13 13 13 13 13 14 14 15 15 16 16 17 17 19 20 21 22 23 22 21 20 21 21 19 16 13 13 14 17 19 20 20 21 22 22 20 18 17 18 20 20 18 17 16 18 18 18 16 14 12 11 12 12 12 12 12 12 11 10 9 9 8 7 6 6 7 7 8 9 7 5 4 7 9 9 8
10 9 7 7 8 8 9 11 13 14 13 12 12 11 11 12 13 14 15 16 16 17 17 18 19 19 19 20 21 21 22 22 22 23 23 21 18 15 15 17 19 21 21 20 18 16 16 16 17 16 17 17 16 15 14 15 16 16 14 13 12 12 13 14 13 11 10 9 9 8 8 8 7 6 6 8 8 8 8 9 8 5 4 5 6 7 6
8 8 7 7 8 7 7 8 9 11 12 12 11 11 12 13 14 15 16 16 17 19 20 20 20 19 19 19 20 21 22 22 22 22 22 20 19 18 16 17 20 20 18 15 14 14 15 16 16 16 16 15 13 12 13 14 15 15 13 12 12 11 11 10 10 9 8 8 8 6 5 6 6 6 7 8 9 9 10 10 10 7 5 5 5 6 7
8 8 7 7 8 8 9 10 11 11 12 12 12 12 13 14 15 17 18 19 19 20 21 21 22 21 21 22 23 23 22 20 19 19 19 18 17 16 16 16 18 17 15 13 12 13 14 15 15 16 15 12 11 12 14 14 14 13 13 11 10 8 7 6 5 4 4 4 4 3 3 3 4 5 6 8 8 9 9 9 9 8 7 6 6 7 7
7 7 6 7 7 7 9 11 10 9 10 12 14 14 14 14 16 17 19 19 20 20 20 21 21 20 21 22 24 24 21 18 15 13 13 14 15 16 16 15 14 14 13 12 11 11 12 13 13 12 10 9 10 13 15 16 15 14 13 10 8 7 5 4 3 2 1 2 3 3 2 2 3 4 5 6 7 8 9 9 9 8 8 8 7 7 8
7 7 7 8 8 7 7 8 8 9 10 13 14 14 13 14 15 16 16 16 17 18 18 19 18 18 18 20 21 21 20 18 13 11 13 17 19 17 16 13 11 10 10 9 9 10 11 11 10 9 8 9 10 12 15 16 15 13 10 7 5 4 4 3 2 2 2 3 4 4 3 3 4 4 4 5 6 8 9 9 8 7 6 7 7 9 9
8 8 8 8 8 8 6 6 7 10 11 11 11 12 13 13 13 13 13 14 15 16 17 17 16 15 15 16 16 16 15 13 11 11 14 19 19 16 14 13 12 11 9 8 8 10 10 10 10 9 8 7 7 7 9 11 10 9 9 7 5 5 5 4 3 3 3 3 4 5 5 5 6 6 6 6 7 8 8 9 8 8 7 7 8 10 11
10 8 7 8 9 9 8 7 7 9 9 8 9 10 11 11 11 12 13 14 15 15 15 14 13 12 12 11 11 10 8 6 7 9 14 17 16 14 14 13 12 11 10 9 9 9 9 9 9 7 5 4 4 5 8 11 12 11 10 8 7 7 6 5 6 6 6 5 5 5 6 8 10 10 9 9 9 8 9 10 11 11 11 10 10 11 11
12 10 9 9 10 10 9 8 8 7 7 6 8 9 9 9 10 11 12 12 13 13 12 10 10 9 9 8 7 6 5 5 7 10 12 12 10 9 9 9 9 10 11 10 9 9 9 8 7 5 3 3 5 6 8 10 12 11 9 7 6 6 6 6 7 9 10 10 10 10 9 11 12 13 13 12 12 11 11 11 12 13 13 13 11 10 11
15 13 12 12 12 11 11 10 9 8 7 7 8 9 10 9 10 10 10 10 10 9 9 8 8 7 6 6 5 3 3 4 5 5 5 5 5 4 5 6 8 9 9 8 8 8 9 8 7 5 4 4 5 6 6 6 8 10 10 9 7 5 3 4 6 8 8 8 9 10 11 12 14 14 14 14 14 14 14 14 15 15 15 14 12 10 10
15 14 14 14 13 13 13 12 12 11 10 11 11 10 9 9 10 10 10 9 8 7 7 6 6 5 6 6 5 3 3 4 4 4 4 5 5 4 3 4 6 7 7 7 7 8 8 8 7 6 5 4 4 5 4 3 4 8 11 11 9 7 6 6 7 8 8 8 7 8 10 11 12 12 13 14 14 15 15 16 16 17 16 15 15 14 12
14 14 14 13 13 14 13 13 13 12 12 12 11 10 9 9 10 10 10 9 8 7 6 5 5 6 6 7 7 5 5 4 3 3 4 6 7 7 6 5 5 6 8 9 8 7 8 9 9 8 6 4 4 5 5 5 4 5 8 11 11 9 8 9 9 10 11 12 11 11 11 11 10 11 12 13 13 12 12 10 11 13 15 16 16 15 13
13 12 12 12 13 13 12 11 11 10 11 11 11 10 10 10 10 10 10 9 9 8 7 7 7 6 6 7 7 6 5 5 5 5 6 7 7 7 6 5 6 9 10 10 9 9 9 10 10 8 7 6 5 4 4 5 4 4 7 9 9 8 7 8 9 9 11 12 13 14 14 13 12 11 11 13 14 14 13 11 9 11 14 15 15 14 13
12 11 10 10 10 11 11 11 9 9 11 13 14 14 14 12 11 11 11 10 9 9 8 8 8 7 7 7 7 5 5 6 7 7 7 7 7 7 6 5 7 10 10 10 10 10 10 10 9 9 8 8 7 6 6 5 5 6 7 8 9 8 8 9 9 10 11 12 12 13 15 16 14 11 10 12 14 14 14 12 10 10 12 13 13 13 13
14 12 11 9 9 9 9 10 10 10 11 12 14 16 17 15 12 10 10 10 10 9 8 8 8 8 7 7 6 5 5 6 6 7 7 7 7 8 7 6 8 9 10 9 9 9 9 9 10 10 11 10 10 9 8 6 5 6 8 10 10 10 9 8 9 11 12 12 11 12 14 16 15 12 10 11 12 12 11 11 10 9 10 11 12 12 12
16 14 12 10 9 8 8 7 9 10 10 10 12 15 16 16 14 11 10 10 11 10 10 10 10 9 7 6 5 5 5 5 5 6 7 6 6 6 7 8 10 11 10 9 8 8 9 10 11 12 12 12 11 10 9 8 7 8 10 11 11 11 11 10 11 11 12 13 14 14 14 15 16 13 10 9 10 12 12 12 11 9 8 9 11 11 11
16 13 11 10 10 10 10 8 7 8 9 9 11 13 15 15 15 13 11 10 11 12 12 12 11 9 8 7 6 6 6 5 5 6 7 7 7 7 8 9 11 10 9 8 7 8 9 10 12 12 12 12 11 11 11 10 9 9 11 12 12 13 14 14 13 13 13 14 14 13 12 14 15 14 12 10 9 9 11 12 11 10 9 9 9 9 10
14 12 12 10 9 9 10 7 5 5 7 9 11 13 15 16 16 14 11 8 10 13 14 13 12 10 9 8 8 7 6 6 6 6 7 8 8 8 8 9 11 11 11 11 11 10 10 11 12 13 14 13 12 12 12 12 11 11 12 13 14 15 16 16 16 16 16 16 15 12 11 12 13 14 13 13 11 9 10 11 11 11 11 11 10 10 10
13 10 9 8 7 7 7 5 2 3 6 9 10 11 14 16 16 13 9 7 9 12 12 12 13 13 12 10 9 8 7 7 7 7 8 8 9 9 9 10 12 14 14 14 14 13 13 13 13 14 14 15 14 14 13 13 13 14 14 15 15 15 16 16 15 15 15 16 16 14 12 11 11 12 13 14 13 12 11 12 12 12 12 12 12 11 11
Wind_Direction
215 218 220 209 193 202 201 197 204 213 207 178 165 186 175 151 164 207 207 182 173 185 195 193 189 177 171 172 166 164 166 169 172 175 178 183 188 194 201 206 209 211 212 214 215 216 217 217 217 216 216 217 218 220 222 221 221 220 220 221 219 216 213 208 205 206 207 210 210 198 195 200 201 202 211 223 238 245 248 253 256 255 256 256 258 263 266
214 216 220 204 177 193 200 199 199 198 208 200 192 199 174 166 188 192 178 184 188 187 191 196 194 177 166 165 162 162 166 168 171 173 176 182 188 193 199 205 210 213 215 217 218 219 218 218 218 217 216 217 218 219 220 220 221 221 220 220 220 217 214 209 206 207 209 214 212 203 199 199 198 203 213 221 232 238 242 248 250 250 251 251 255 263 267
217 214 213 199 176 180 186 192 185 165 194 233 213 199 175 174 205 186 171 182 205 215 193 181 180 165 154 159 163 165 169 172 174 176 179 185 191 195 200 205 209 213 216 218 220 221 220 221 221 221 220 220 219 219 219 219 220 221 218 216 214 214 213 210 206 206 212 217 213 208 205 203 203 208 217 226 233 237 242 245 246 247 249 252 257 263 266
213 205 175 167 172 173 178 200 203 161 148 206 206 160 156 168 160 138 161 182 212 228 180 134 153 158 152 161 169 169 173 176 179 180 182 187 193 198 203 207 210 213 216 218 220 222 224 224 222 223 223 220 218 218 218 218 218 217 216 213 210 210 210 207 204 206 214 218 212 210 213 213 212 215 222 231 235 238 241 244 245 247 251 254 257 259 261
222 211 143 133 121 111 170 237 235 157 124 114 104 70 48 183 145 133 168 204 213 191 144 130 147 162 154 160 169 175 180 181 182 185 188 192 198 203 208 213 215 217 219 220 222 225 227 227 226 226 226 223 221 219 218 218 216 214 214 212 210 209 207 204 203 207 220 232 225 221 222 222 221 222 227 234 238 240 243 245 246 249 252 254 255 258 260
221 233 128 106 91 105 201 244 236 119 112 105 98 92 55 333 150 143 163 176 143 123 136 143 155 170 160 154 161 170 176 175 175 181 188 195 204 210 215 220 223 224 225 224 224 226 230 232 232 230 228 225 224 221 218 215 213 212 212 211 210 210 206 203 204 210 230 248 244 234 229 229 229 229 233 238 241 244 246 248 248 249 252 253 256 259 260
176 195 98 117 190 207 233 242 178 118 114 107 100 91 54 43 82 111 119 134 136 128 126 125 124 136 144 142 143 151 159 162 162 165 174 184 196 207 214 221 226 229 231 230 227 228 231 235 234 230 226 225 223 221 218 214 211 211 212 212 211 209 206 203 205 216 235 252 256 243 233 233 237 237 238 241 244 247 249 250 251 252 254 256 258 260 261
141 102 90 155 215 255 291 279 120 103 96 89 81 55 15 5 28 92 106 117 128 125 125 128 129 131 134 135 138 145 150 157 162 169 185 194 198 207 215 222 225 227 232 235 235 235 235 235 233 229 227 226 223 221 218 215 213 212 212 212 210 207 205 204 209 223 238 252 262 250 238 238 242 243 245 246 248 250 251 253 254 255 256 258 258 259 260
127 115 93 161 256 346 340 333 343 40 124 122 109 82 7 342 348 27 102 103 100 113 122 128 131 130 123 119 143 160 164 173 186 204 224 216 206 208 213 221 229 232 238 240 240 243 242 238 234 232 230 228 224 220 216 214 213 211 209 209 207 204 206 212 218 228 239 254 265 254 240 241 246 250 252 252 252 253 256 259 261 261 264 267 267 265 263
91 92 65 37 49 38 288 288 304 306 146 137 123 91 360 330 343 349 109 128 123 117 117 125 128 123 110 102 174 170 167 175 198 214 218 208 195 191 199 219 237 241 247 249 245 245 244 239 235 232 230 228 223 216 210 208 206 204 203 204 204 206 217 227 229 232 243 257 263 253 244 247 253 256 257 257 257 259 261 263 264 265 268 272 273 269 265
57 92 94 118 112 132 251 283 316 332 100 126 104 66 1 306 333 341 117 142 133 134 139 139 130 114 110 190 206 168 154 155 169 178 182 183 184 188 199 225 242 244 252 257 250 245 243 241 238 236 233 228 220 210 204 202 198 197 202 205 208 218 236 239 234 238 250 258 258 252 253 256 258 260 262 263 263 263 263 262 262 263 264 265 268 270 270
64 91 111 157 124 109 288 310 325 324 355 92 80 70 251 293 334 6 96 125 120 128 135 130 113 106 145 177 179 138 138 151 167 172 180 192 204 212 220 231 239 244 253 261 257 247 241 239 235 230 225 217 208 203 201 199 196 198 207 213 219 234 246 239 236 244 253 254 254 257 259 261 264 265 267 268 266 264 264 264 262 261 260 260 265 272 275
60 81 103 81 70 291 314 329 329 328 352 66 77 160 223 308 16 63 84 89 91 97 101 100 93 101 111 103 93 102 111 109 122 165 198 219 231 244 244 234 234 243 255 264 257 241 234 230 222 215 209 202 199 199 200 199 201 208 218 224 230 239 241 236 239 248 253 254 258 260 261 265 268 268 268 269 267 264 265 267 265 263 262 263 266 269 272
62 107 113 59 220 303 335 332 337 355 27 88 134 178 174 65 66 76 80 83 85 83 84 89 94 94 84 72 69 73 73 66 70 108 199 214 213 216 220 225 236 250 259 256 240 231 233 230 223 220 217 206 203 208 212 211 215 221 225 229 232 233 233 236 243 249 254 258 260 260 263 267 268 267 270 271 266 264 268 273 271 270 268 264 262 263 266
83 87 68 71 209 311 345 343 344 24 41 159 154 143 122 84 77 76 75 79 82 81 79 78 76 74 68 63 61 58 54 60 76 123 189 203 205 207 215 230 243 250 249 240 226 222 225 222 220 224 220 205 203 219 229 226 225 225 222 222 225 227 231 236 243 249 254 259 260 263 267 269 268 269 271 269 265 266 274 277 274 272 269 263 260 263 267
88 105 79 126 223 318 12 32 53 35 32 84 119 112 104 93 85 78 73 72 76 80 80 73 65 59 53 50 47 43 42 51 92 170 199 215 223 230 236 237 237 239 237 228 220 220 221 219 219 223 219 207 205 218 228 225 222 220 218 219 222 225 231 238 245 251 254 256 260 265 269 271 271 272 272 271 270 273 278 278 275 272 267 263 265 271 272
107 134 169 204 249 31 49 58 59 48 49 56 62 62 65 73 76 77 74 66 60 66 72 70 64 57 48 43 38 32 30 32 49 195 225 234 233 234 232 225 227 237 237 228 225 223 220 220 221 220 215 206 199 208 225 229 224 217 214 217 218 217 221 228 235 239 242 246 253 260 266 268 271 272 274 277 279 280 280 279 276 271 268 267 270 275 276
105 87 74 24 29 49 62 68 67 59 55 52 49 48 44 38 43 62 77 73 57 47 51 66 70 64 53 45 38 29 25 22 14 313 250 238 232 232 232 230 234 239 235 230 230 221 214 218 220 214 206 197 191 202 221 222 212 206 205 205 202 199 202 210 217 221 227 235 242 250 257 261 264 269 275 278 279 281 284 283 277 271 269 270 271 273 274
120 80 358 3 44 50 61 71 71 66 60 54 49 46 39 32 33 43 64 82 80 60 42 43 52 52 44 37 30 22 20 19 5 330 280 254 241 235 236 240 241 239 235 228 221 215 212 213 212 206 202 195 189 195 202 193 185 191 197 192 192 195 198 206 213 217 225 232 236 242 251 255 259 265 269 272 274 278 281 282 279 275 274 274 274 274 274
109 164 229 106 79 68 59 62 64 63 61 52 43 44 43 35 27 26 38 60 70 59 42 25 16 19 25 26 23 12 4 3 353 322 287 268 254 244 241 240 237 235 232 223 217 215 210 206 206 205 198 187 178 182 187 177 167 175 184 191 216 225 220 221 224 224 230 236 238 247 258 263 266 268 270 273 279 281 279 276 275 274 274 276 277 277 276
86 122 195 130 85 64 54 59 56 51 52 38 28 30 26 15 6 5 18 39 51 51 47 29 5 13 19 20 18 10 359 353 339 311 289 274 261 247 239 234 228 226 227 222 219 214 203 197 196 189 182 176 170 170 172 167 163 176 191 228 236 229 227 228 230 237 247 250 253 264 274 276 276 277 278 280 282 282 277 273 273 275 277 278 279 280 282
145 194 185 156 115 79 63 64 51 28 3 26 44 44 31 20 10 358 6 31 50 52 46 28 7 5 7 6 6 3 358 356 343 319 296 276 260 244 233 227 224 225 226 222 218 210 197 189 180 170 170 172 167 162 163 164 168 214 294 298 259 237 233 233 239 249 255 255 261 272 279 278 276 277 278 280 281 277 273 271 272 276 279 281 283 285 287
167 148 146 136 121 135 133 84 69 66 70 81 84 80 74 75 66 17 12 24 28 25 24 14 355 343 335 331 337 344 348 356 354 334 306 282 262 246 237 233 230 226 220 215 214 208 196 186 174 163 162 165 165 168 176 182 183 240 299 290 258 241 237 237 243 249 251 253 262 270 272 271 270 272 275 275 274 270 267 268 272 275 278 281 283 285 285
90 101 117 114 107 115 112 91 83 79 75 79 85 80 70 65 58 39 24 16 9 8 13 10 358 343 321 301 296 295 292 309 338 326 296 280 265 252 247 243 237 229 218 211 209 203 192 181 171 164 163 169 174 184 203 217 230 267 281 263 238 231 232 235 240 244 247 254 260 264 266 267 269 272 274 273 268 266 267 271 276 280 283 284 284 282 282
94 95 103 102 98 98 97 91 84 76 71 75 76 67 55 51 51 43 29 21 21 27 29 21 12 4 335 294 276 266 256 243 234 248 256 255 251 247 244 239 236 231 219 205 196 188 180 175 171 170 176 185 196 214 239 257 267 264 247 232 225 225 229 234 240 245 250 256 261 264 268 270 272 275 277 275 270 269 270 272 277 282 287 287 285 283 282
98 100 97 92 85 82 86 86 74 64 66 69 67 62 54 52 57 54 38 32 35 38 35 27 20 18 6 319 267 253 248 234 218 217 229 236 237 237 237 236 232 222 206 192 185 184 187 188 189 196 211 228 242 247 252 258 254 231 219 220 222 225 231 238 242 246 251 257 263 268 272 275 276 278 278 276 275 273 271 273 279 284 286 285 284 285 286
94 99 95 86 73 65 70 72 64 62 68 65 58 54 48 45 53 54 38 30 31 30 28 23 21 21 20 4 281 246 242 243 236 227 222 228 237 239 238 235 226 211 200 195 197 205 211 209 208 218 234 252 259 250 238 227 219 215 216 222 227 233 239 241 242 245 251 258 265 272 276 279 280 278 276 277 279 279 278 278 279 280 280 280 282 284 287
82 84 85 82 70 62 67 70 66 63 63 58 51 46 35 25 24 21 16 14 12 12 12 14 16 20 24 21 354 278 255 256 258 249 238 237 242 237 229 225 220 213 210 213 219 220 215 213 222 239 252 256 246 227 212 208 213 219 223 232 246 251 250 247 247 251 256 262 265 269 273 276 276 276 276 278 279 280 280 279 277 275 276 278 277 278 283
78 79 78 73 67 66 69 66 56 46 39 37 37 30 22 16 13 11 11 8 2 358 357 1 6 13 23 27 18 354 312 280 270 268 266 259 246 232 223 220 219 217 218 222 221 215 213 220 236 246 234 215 208 206 207 211 217 222 232 248 259 260 258 258 258 258 259 260 261 263 267 271 273 274 274 273 275 276 276 276 274 272 274 275 271 270 279
78 79 74 63 57 57 55 48 39 31 24 20 17 13 10 8 6 3 1 357 353 349 344 342 344 350 357 4 9 7 356 332 303 285 273 260 244 230 226 227 226 223 223 222 221 221 224 227 226 210 196 194 200 211 220 226 232 240 253 265 270 272 270 267 263 261 262 263 263 266 270 273 273 271 268 268 269 271 271 270 268 268 270 271 266 263 271
72 65 57 48 42 40 39 33 26 22 19 15 10 6 5 3 359 354 350 347 345 342 335 329 327 329 333 336 339 344 345 342 334 315 282 261 248 239 233 230 228 225 223 225 230 236 235 223 207 200 203 207 210 212 217 238 255 260 266 274 277 275 269 263 261 265 268 269 271 274 276 276 274 270 268 267 265 263 262 260 261 263 263 260 254 251 251
52 39 30 24 22 22 22 16 5 0 1 3 2 0 359 357 354 349 343 341 340 336 331 326 320 317 317 319 319 320 325 330 329 326 314 287 263 247 236 233 235 234 232 233 238 240 234 219 209 211 218 222 225 227 233 250 260 261 266 272 272 267 262 261 263 268 272 274 278 280 280 277 273 269 266 263 255 251 252 252 255 259 256 249 247 243 230
44 40 29 17 11 9 7 4 355 346 344 346 348 345 341 340 343 342 338 333 332 331 330 328 323 316 311 308 305 306 311 317 318 316 314 305 283 261 250 247 248 248 245 241 237 232 225 219 216 220 223 227 234 239 243 246 250 256 263 267 263 258 258 260 262 267 272 275 277 278 276 272 268 265 263 256 246 246 250 252 255 256 245 235 234 228 217
54 51 35 17 10 1 351 346 343 338 335 334 332 329 326 326 328 329 329 327 326 328 329 327 322 317 313 310 306 303 303 306 309 309 304 294 283 274 262 253 250 248 242 233 223 218 218 222 227 231 233 232 235 241 243 244 248 254 257 255 250 249 255 260 263 269 273 272 269 268 266 265 265 265 257 250 247 247 249 252 256 250 222 214 216 216 220
47 37 20 9 4 352 337 334 335 332 330 330 331 329 325 322 321 322 322 321 320 318 317 316 317 316 315 311 307 305 303 300 299 301 300 290 274 264 258 251 244 238 229 220 215 219 228 233 235 235 233 227 228 236 242 245 248 250 249 249 250 253 259 265 268 268 265 261 260 262 261 260 260 252 241 242 243 240 240 244 245 237 211 203 210 219 239
21 12 4 356 348 337 327 327 328 325 323 325 327 327 321 316 314 316 314 312 310 307 304 304 308 311 311 308 305 304 303 300 297 300 299 284 265 256 254 245 233 224 220 221 226 230 230 228 224 221 222 225 232 241 244 244 246 248 249 254 260 263 264 264 262 259 258 258 258 256 252 251 250 240 232 229 227 224 226 232 236 236 227 218 226 244 261
17 7 356 350 347 334 319 315 320 324 322 319 318 320 319 314 310 309 307 305 305 303 300 301 303 303 302 303 302 301 301 301 301 300 291 272 252 244 237 227 221 223 228 229 223 217 216 219 220 221 227 238 245 244 240 242 248 254 258 260 261 262 258 247 243 252 261 253 235 221 222 234 244 242 236 234 232 229 226 231 240 251 252 243 240 250 261
16 8 353 345 347 340 326 323 325 325 322 320 320 320 318 313 310 309 308 308 307 305 301 300 301 301 300 301 300 300 299 296 289 276 256 234 221 216 213 212 221 232 230 219 208 206 210 214 217 221 229 236 236 237 243 250 255 259 259 256 251 247 242 230 229 269 305 251 229 241 266 277 268 258 249 250 256 257 251 248 252 257 256 251 247 247 252
11 0 345 336 333 331 332 338 338 330 323 322 320 317 316 317 318 317 318 319 318 313 308 304 301 301 302 301 300 300 298 289 270 242 215 207 208 212 215 216 219 222 216 210 210 210 207 207 214 225 234 236 236 240 245 248 248 244 236 225 217 222 226 227 242 288 307 291 273 276 292 306 302 293 279 274 282 280 265 250 240 237 243 256 263 262 259
5 357 353 350 346 340 337 340 339 333 328 324 321 322 326 329 330 331 332 332 330 325 318 311 305 302 301 301 301 300 294 278 261 244 227 217 212 207 200 191 187 191 196 199 201 203 210 223 237 244 244 243 242 236 226 219 212 201 190 181 179 198 217 236 262 271 282 302 299 286 282 286 294 299 297 290 289 283 262 243 237 239 241 248 262 270 268
18 14 11 7 360 351 345 339 334 333 332 330 329 333 336 335 337 338 338 337 337 333 324 317 315 316 315 310 303 294 278 249 232 230 226 220 213 201 192 190 197 210 218 213 207 213 229 243 246 247 242 218 187 172 179 183 182 178 177 177 181 199 221 248 267 268 273 289 299 294 285 279 280 287 292 288 281 273 257 246 242 241 238 241 256 268 265
29 23 14 8 5 1 358 354 347 344 347 346 342 342 343 342 345 345 343 343 345 343 336 335 342 342 334 323 311 297 271 233 216 214 217 220 221 216 213 216 223 226 225 221 222 231 243 245 240 244 245 205 165 152 164 181 186 186 186 189 198 212 228 244 251 255 262 271 278 283 281 274 272 276 280 276 271 269 264 254 244 238 237 242 250 252 245
31 29 28 27 23 18 14 10 4 0 359 354 349 349 349 350 355 355 350 347 349 348 348 355 3 357 340 331 327 314 271 241 235 239 246 243 228 214 216 224 222 217 213 213 219 229 238 241 241 245 248 226 187 161 156 172 189 198 203 207 210 217 231 237 237 241 246 251 259 266 269 267 268 270 271 269 266 263 260 257 254 250 245 241 241 241 239
29 30 32 32 29 25 25 22 18 16 13 7 4 3 2 1 3 3 357 350 347 345 347 354 359 356 347 342 335 303 267 267 281 293 288 267 248 238 233 224 220 217 210 206 214 228 240 245 244 238 229 218 204 196 201 231 235 222 218 217 220 232 252 266 268 269 269 264 254 247 248 256 264 268 268 266 263 257 251 249 250 250 244 237 237 242 241
22 23 26 28 27 28 28 25 22 23 20 14 10 10 8 6 7 8 4 358 354 353 353 354 356 355 352 347 340 324 305 301 301 287 271 270 272 272 262 239 227 223 215 211 221 238 243 236 230 223 215 211 216 225 245 273 282 246 226 226 233 244 259 269 274 278 281 280 272 262 258 260 263 263 261 259 255 250 245 237 232 234 236 235 237 241 241
13 14 19 24 26 28 27 23 21 24 25 23 20 17 12 8 6 6 4 359 355 356 358 354 349 344 336 329 325 318 309 311 313 298 284 280 280 280 274 247 223 221 221 224 233 241 236 226 222 220 218 216 219 233 260 278 272 238 225 229 235 246 264 276 279 283 285 284 279 275 274 272 266 262 264 265 262 260 259 254 239 234 237 236 236 238 240
1 2 8 14 22 28 28 23 23 30 34 34 32 28 22 15 9 6 7 4 359 356 355 352 348 344 335 328 324 313 301 302 307 307 302 294 285 284 281 243 212 218 234 245 245 239 231 224 222 226 228 227 229 241 257 257 241 236 245 254 260 269 279 283 283 284 287 285 280 278 278 276 271 269 272 274 270 264 260 253 240 230 228 227 224 225 227
344 343 344 348 360 15 23 25 29 35 36 33 30 27 23 17 12 10 12 13 11 8 2 356 354 349 339 332 331 326 315 309 308 307 308 304 292 284 279 256 232 238 252 259 252 242 237 235 236 238 238 237 236 239 242 242 242 254 265 270 272 276 281 280 279 282 287 286 281 279 280 279 274 268 265 266 266 262 255 246 236 229 230 230 227 224 223
346 339 333 330 336 349 1 13 25 27 22 18 19 19 16 14 13 14 13 14 17 17 10 2 358 353 343 334 329 323 318 317 313 304 298 293 284 276 270 261 253 251 253 255 254 250 246 242 240 238 237 237 236 235 238 245 255 258 257 257 263 272 279 280 280 283 288 288 285 283 284 283 277 267 255 256 265 267 259 249 242 239 240 239 233 229 230
3 1 355 343 336 337 338 342 357 11 11 9 9 9 7 6 6 5 4 10 18 17 11 6 4 358 347 337 327 315 307 308 310 304 298 290 279 268 262 259 255 249 245 246 255 260 257 251 245 242 241 241 241 241 245 250 252 247 246 252 264 275 278 275 272 275 284 289 288 282 282 287 286 273 250 239 252 265 259 249 240 235 235 238 239 241 244
11 17 16 7 355 351 351 346 346 1 8 5 4 5 5 2 357 353 354 2 7 5 3 6 7 2 351 340 330 321 319 320 318 310 301 293 280 268 262 259 255 249 245 247 255 264 269 266 259 254 252 250 248 248 251 254 254 251 253 262 273 278 275 269 269 275 284 290 288 279 274 282 288 277 253 237 237 248 252 248 243 241 242 247 254 259 259
5 11 17 18 20 27 34 40 44 17 3 358 354 356 358 357 353 351 352 350 342 340 347 359 4 0 353 345 335 328 330 335 329 315 302 294 284 273 264 257 252 250 250 251 252 257 263 265 262 258 255 252 252 254 259 262 263 267 272 278 280 276 271 268 271 277 285 289 289 282 273 271 278 278 266 252 243 240 242 244 246 246 247 249 254 259 259
Height
1416 1415 1415 1413 1415 1417 1417 1418 1420 1421 1422 1426 1429 1432 1435 1438 1446 1451 1449 1448 1450 1448 1444 1441 1437 1434 1435 1435 1436 1439 1442 1446 1448 1451 1453 1456 1458 1460 1462 1464 1465 1466 1468 1469 1471 1473 1475 1477 1479 1480 1482 1485 1486 1489 1491 1494 1496 1499 1501 1504 1506 1509 1511 1513 1515 1518 1519 1521 1521 1522 1524 1524 1525 1526 1526 1527 1528 1528 1529 1529 1530 1530 1529 1529 1528 1528 1528
1414 1412 1413 1412 1413 1415 1415 1416 1416 1417 1420 1423 1425 1426 1427 1430 1433 1435 1439 1444 1442 1434 1432 1431 1429 1429 1431 1434 1437 1440 1442 1445 1448 1450 1452 1453 1455 1457 1459 1461 1462 1463 1464 1465 1467 1469 1471 1473 1475 1477 1479 1481 1483 1485 1488 1491 1493 1495 1498 1501 1504 1506 1508 1511 1514 1516 1517 1518 1519 1520 1521 1522 1523 1523 1524 1525 1526 1526 1527 1527 1527 1527 1527 1527 1526 1526 1525
1415 1409 1409 1411 1412 1413 1415 1416 1415 1415 1417 1419 1422 1425 1425 1428 1432 1432 1436 1444 1441 1429 1423 1426 1428 1430 1433 1435 1438 1439 1441 1444 1447 1449 1450 1451 1454 1456 1457 1459 1460 1461 1462 1463 1464 1466 1467 1469 1471 1473 1475 1477 1479 1481 1484 1487 1489 1491 1494 1497 1500 1503 1505 1508 1511 1512 1514 1516 1517 1518 1519 1520 1521 1521 1522 1523 1523 1524 1524 1524 1524 1524 1524 1524 1523 1523 1523
1418 1408 1409 1413 1411 1412 1416 1417 1416 1416 1418 1420 1422 1422 1423 1426 1431 1436 1443 1447 1440 1427 1423 1428 1431 1431 1432 1435 1436 1438 1441 1443 1445 1446 1448 1450 1452 1454 1456 1457 1458 1458 1459 1460 1461 1462 1464 1466 1467 1469 1471 1473 1476 1478 1480 1483 1486 1488 1491 1494 1497 1500 1502 1505 1508 1510 1512 1512 1513 1515 1516 1518 1518 1519 1520 1521 1521 1521 1521 1521 1521 1521 1521 1521 1521 1520 1520
1417 1408 1407 1409 1411 1422 1429 1422 1416 1416 1417 1418 1419 1420 1420 1419 1422 1433 1442 1438 1427 1421 1423 1429 1433 1433 1433 1434 1436 1438 1440 1442 1444 1446 1447 1450 1452 1453 1455 1456 1456 1457 1457 1457 1459 1460 1461 1463 1464 1466 1467 1469 1471 1474 1476 1480 1482 1485 1488 1490 1494 1497 1500 1503 1505 1507 1509 1509 1511 1513 1514 1515 1516 1517 1518 1518 1518 1518 1518 1518 1519 1519 1519 1519 1518 1518 1518
1416 1411 1404 1407 1420 1435 1434 1419 1410 1412 1413 1415 1419 1422 1422 1419 1417 1420 1424 1422 1420 1422 1425 1429 1433 1434 1433 1434 1436 1438 1440 1443 1445 1447 1449 1451 1452 1453 1454 1455 1455 1456 1455 1456 1457 1458 1459 1461 1461 1463 1465 1466 1469 1471 1474 1477 1479 1482 1485 1488 1491 1494 1497 1500 1502 1504 1506 1507 1509 1511 1512 1513 1514 1515 1516 1516 1516 1516 1516 1517 1517 1516 1516 1516 1516 1516 1516
1414 1411 1407 1421 1437 1435 1421 1410 1406 1408 1409 1411 1417 1421 1420 1418 1416 1415 1416 1418 1418 1420 1424 1428 1433 1435 1436 1437 1439 1440 1442 1444 1445 1447 1449 1451 1452 1452 1453 1454 1454 1455 1455 1455 1456 1457 1458 1459 1459 1461 1463 1464 1467 1470 1472 1475 1477 1480 1483 1486 1488 1492 1494 1497 1500 1503 1504 1505 1507 1509 1510 1511 1512 1513 1513 1513 1513 1514 1514 1515 1515 1514 1514 1514 1514 1514 1514
1414 1413 1416 1431 1436 1423 1410 1408 1406 1406 1410 1412 1417 1424 1425 1421 1419 1417 1418 1420 1418 1416 1420 1425 1431 1436 1438 1440 1441 1442 1443 1445 1445 1447 1448 1449 1450 1451 1451 1452 1453 1453 1454 1454 1454 1456 1456 1457 1457 1458 1460 1462 1465 1467 1470 1472 1475 1478 1482 1485 1487 1490 1493 1496 1499 1501 1502 1503 1505 1506 1507 1508 1509 1510 1510 1511 1511 1512 1512 1512 1512 1512 1512 1512 1511 1512 1511
1416 1418 1421 1424 1426 1423 1419 1415 1410 1408 1411 1412 1417 1428 1431 1424 1422 1421 1420 1421 1421 1418 1419 1423 1428 1434 1439 1443 1444 1443 1443 1445 1445 1446 1446 1447 1448 1449 1449 1450 1451 1451 1452 1453 1453 1454 1454 1455 1455 1456 1458 1460 1462 1464 1467 1469 1472 1476 1479 1483 1487 1490 1493 1495 1497 1499 1501 1502 1503 1504 1505 1505 1506 1507 1507 1508 1510 1510 1511 1511 1511 1511 1510 1510 1510 1510 1510
1416 1419 1425 1428 1434 1438 1432 1422 1412 1406 1406 1405 1408 1424 1433 1426 1422 1424 1422 1421 1423 1422 1423 1427 1429 1434 1443 1449 1447 1443 1443 1444 1443 1444 1445 1446 1446 1447 1447 1448 1449 1450 1451 1451 1452 1453 1453 1453 1454 1454 1456 1458 1459 1461 1463 1466 1470 1473 1477 1481 1484 1487 1490 1493 1495 1497 1499 1500 1501 1501 1502 1502 1503 1504 1505 1506 1507 1508 1508 1508 1508 1508 1508 1508 1509 1508 1507
1415 1419 1429 1435 1440 1440 1432 1421 1412 1406 1406 1402 1403 1427 1443 1432 1422 1425 1423 1421 1422 1423 1425 1429 1430 1437 1449 1452 1446 1442 1443 1443 1442 1443 1444 1444 1444 1445 1445 1446 1447 1448 1449 1450 1450 1450 1451 1452 1452 1453 1454 1454 1456 1459 1462 1465 1469 1473 1476 1479 1482 1485 1488 1490 1493 1495 1497 1498 1499 1499 1499 1499 1500 1500 1501 1502 1503 1504 1504 1504 1505 1505 1505 1504 1504 1504 1504
1419 1422 1428 1431 1431 1431 1427 1420 1414 1409 1406 1402 1414 1444 1454 1435 1424 1426 1424 1423 1425 1425 1427 1430 1433 1439 1447 1448 1444 1443 1443 1443 1442 1442 1442 1442 1442 1442 1443 1444 1446 1447 1448 1448 1448 1449 1450 1451 1453 1454 1455 1456 1457 1460 1463 1465 1467 1471 1475 1478 1481 1484 1486 1487 1490 1493 1495 1496 1496 1496 1496 1496 1497 1497 1497 1498 1499 1500 1501 1501 1501 1501 1500 1500 1500 1500 1501
1422 1423 1428 1431 1430 1426 1421 1418 1414 1408 1405 1414 1436 1454 1448 1431 1428 1429 1425 1426 1428 1428 1429 1432 1435 1439 1442 1442 1442 1441 1440 1440 1440 1440 1440 1440 1440 1441 1442 1444 1445 1446 1446 1447 1447 1448 1449 1450 1452 1454 1459 1464 1466 1468 1470 1469 1468 1471 1476 1478 1481 1483 1484 1486 1489 1491 1492 1493 1493 1493 1493 1494 1494 1494 1494 1495 1495 1496 1498 1498 1497 1497 1496 1496 1497 1497 1497
1429 1429 1431 1435 1434 1425 1417 1415 1411 1407 1415 1433 1446 1444 1436 1432 1432 1430 1428 1429 1429 1429 1432 1435 1437 1440 1441 1440 1440 1438 1438 1439 1439 1439 1440 1440 1440 1440 1442 1443 1444 1445 1445 1445 1446 1447 1447 1448 1449 1450 1455 1462 1467 1472 1476 1475 1472 1473 1477 1479 1480 1482 1483 1485 1487 1489 1490 1490 1490 1490 1491 1491 1492 1491 1492 1492 1492 1493 1494 1494 1493 1493 1493 1493 1494 1493 1493
1432 1432 1434 1440 1441 1428 1416 1414 1414 1415 1425 1436 1435 1431 1432 1434 1431 1429 1431 1431 1430 1432 1434 1435 1438 1439 1439 1440 1439 1438 1438 1439 1439 1440 1440 1439 1440 1441 1442 1443 1444 1444 1444 1444 1445 1446 1447 1448 1449 1449 1451 1456 1461 1468 1473 1474 1474 1476 1477 1478 1480 1481 1482 1484 1485 1486 1487 1487 1487 1488 1488 1489 1489 1489 1489 1489 1488 1489 1491 1490 1490 1490 1489 1490 1490 1490 1489
1428 1433 1438 1441 1439 1428 1416 1416 1423 1428 1430 1431 1430 1431 1433 1432 1431 1431 1431 1431 1433 1433 1433 1435 1437 1437 1437 1439 1439 1439 1440 1440 1440 1440 1440 1439 1440 1440 1441 1442 1442 1442 1444 1444 1445 1447 1448 1449 1449 1450 1452 1455 1459 1465 1469 1470 1474 1477 1477 1477 1479 1479 1480 1482 1483 1483 1484 1484 1485 1485 1486 1486 1486 1486 1486 1486 1486 1487 1487 1486 1486 1486 1486 1487 1487 1486 1485
1427 1431 1435 1434 1430 1425 1419 1420 1426 1430 1431 1433 1435 1435 1434 1434 1434 1432 1431 1432 1435 1435 1433 1434 1436 1436 1438 1440 1439 1439 1440 1440 1440 1440 1439 1439 1440 1440 1441 1442 1442 1443 1444 1444 1445 1446 1447 1448 1449 1450 1453 1456 1458 1463 1468 1470 1473 1475 1475 1476 1477 1477 1478 1480 1480 1481 1481 1481 1482 1483 1483 1484 1483 1483 1483 1483 1483 1483 1482 1482 1482 1482 1483 1484 1483 1482 1482
1427 1428 1431 1429 1428 1427 1424 1423 1426 1429 1431 1435 1436 1437 1439 1440 1439 1436 1433 1434 1437 1439 1438 1436 1435 1438 1440 1440 1439 1439 1440 1441 1441 1440 1440 1440 1441 1441 1442 1442 1443 1443 1444 1444 1445 1445 1446 1447 1447 1449 1453 1455 1456 1460 1466 1469 1470 1472 1473 1475 1475 1475 1476 1477 1477 1478 1478 1478 1479 1480 1480 1480 1480 1480 1480 1480 1480 1480 1479 1479 1479 1480 1480 1481 1480 1479 1478
1429 1432 1432 1429 1428 1429 1427 1426 1428 1428 1431 1434 1436 1438 1441 1443 1443 1443 1440 1438 1440 1442 1442 1439 1439 1439 1437 1437 1438 1440 1441 1441 1441 1440 1441 1441 1441 1441 1442 1442 1443 1443 1443 1444 1444 1444 1445 1446 1447 1448 1452 1453 1454 1457 1464 1467 1468 1470 1474 1476 1475 1474 1473 1473 1474 1475 1475 1475 1476 1476 1477 1477 1477 1477 1477 1477 1477 1477 1477 1478 1477 1477 1478 1477 1477 1476 1475
1427 1431 1430 1427 1427 1429 1428 1429 1430 1429 1431 1434 1436 1437 1441 1444 1447 1449 1446 1442 1438 1437 1438 1443 1444 1441 1438 1437 1439 1441 1441 1441 1441 1441 1442 1441 1441 1441 1442 1442 1442 1443 1443 1444 1444 1444 1444 1445 1446 1448 1451 1453 1453 1456 1462 1467 1468 1470 1473 1474 1473 1472 1471 1471 1471 1472 1472 1473 1473 1473 1473 1474 1474 1474 1474 1474 1475 1475 1476 1476 1475 1475 1475 1474 1473 1473 1472
1429 1430 1428 1426 1427 1429 1429 1430 1431 1432 1433 1435 1436 1438 1441 1445 1449 1450 1446 1442 1438 1436 1439 1444 1445 1443 1440 1439 1440 1441 1441 1441 1441 1442 1441 1441 1441 1441 1441 1442 1442 1442 1443 1444 1444 1444 1445 1446 1447 1447 1450 1454 1454 1456 1462 1467 1468 1469 1470 1469 1469 1470 1470 1470 1470 1470 1470 1470 1470 1470 1470 1471 1471 1471 1471 1472 1472 1473 1473 1473 1472 1472 1471 1471 1470 1470 1469
1430 1428 1425 1425 1427 1430 1431 1430 1431 1433 1435 1436 1437 1438 1440 1444 1450 1452 1449 1444 1442 1441 1443 1444 1443 1442 1442 1441 1441 1442 1441 1441 1441 1441 1441 1441 1441 1441 1441 1442 1442 1442 1443 1444 1444 1445 1445 1446 1448 1450 1452 1454 1455 1457 1462 1465 1465 1465 1466 1466 1467 1468 1468 1467 1468 1468 1468 1468 1468 1468 1468 1468 1469 1469 1469 1470 1470 1470 1470 1470 1469 1469 1469 1468 1467 1467 1466
1426 1424 1424 1425 1427 1430 1433 1432 1433 1435 1436 1437 1438 1438 1440 1445 1450 1451 1449 1446 1445 1444 1444 1443 1443 1442 1442 1442 1442 1442 1441 1441 1441 1441 1441 1441 1441 1441 1442 1442 1442 1442 1443 1443 1444 1445 1445 1446 1449 1451 1452 1454 1455 1457 1460 1460 1460 1463 1464 1465 1466 1466 1466 1466 1466 1466 1466 1466 1466 1466 1467 1466 1467 1467 1467 1468 1468 1468 1468 1468 1467 1467 1466 1465 1465 1464 1464
1423 1425 1427 1428 1428 1432 1435 1437 1437 1438 1439 1440 1440 1441 1443 1446 1446 1446 1446 1447 1447 1447 1445 1444 1444 1443 1442 1442 1442 1441 1441 1441 1441 1441 1441 1441 1441 1442 1442 1442 1442 1442 1442 1443 1444 1445 1446 1447 1449 1450 1452 1455 1456 1457 1458 1459 1460 1462 1464 1465 1465 1465 1465 1465 1464 1464 1464 1464 1464 1464 1464 1464 1465 1465 1465 1465 1466 1466 1466 1465 1464 1464 1463 1463 1462 1462 1461
1424 1428 1429 1430 1432 1435 1438 1439 1440 1441 1442 1443 1444 1445 1446 1446 1445 1445 1446 1448 1448 1448 1446 1445 1444 1443 1442 1441 1441 1440 1440 1440 1440 1441 1441 1441 1441 1441 1441 1441 1442 1442 1442 1443 1444 1445 1446 1448 1449 1451 1453 1455 1457 1458 1458 1459 1460 1461 1462 1463 1463 1462 1462 1462 1462 1462 1462 1462 1462 1462 1462 1462 1462 1462 1462 1463 1463 1463 1463 1462 1462 1462 1461 1460 1460 1459 1459
1428 1430 1431 1432 1435 1438 1439 1441 1442 1443 1444 1445 1445 1447 1448 1447 1447 1447 1447 1448 1448 1448 1447 1446 1444 1443 1441 1440 1440 1440 1440 1440 1440 1440 1440 1440 1440 1440 1440 1441 1441 1442 1443 1443 1444 1446 1447 1448 1450 1452 1453 1454 1456 1457 1457 1457 1458 1459 1460 1460 1460 1460 1460 1460 1460 1460 1461 1461 1461 1460 1460 1461 1461 1460 1460 1460 1460 1460 1461 1460 1460 1459 1458 1458 1457 1457 1457
1431 1432 1432 1434 1438 1440 1442 1443 1444 1445 1446 1446 1446 1447 1447 1447 1447 1448 1447 1447 1447 1447 1446 1445 1444 1442 1441 1440 1440 1440 1440 1440 1439 1439 1439 1439 1439 1439 1440 1440 1441 1442 1443 1444 1445 1446 1447 1448 1450 1451 1452 1453 1453 1454 1454 1455 1456 1456 1457 1457 1458 1458 1458 1458 1459 1459 1459 1459 1459 1459 1459 1459 1459 1458 1458 1458 1458 1458 1458 1458 1458 1457 1456 1456 1456 1456 1456
1434 1435 1436 1438 1442 1445 1445 1445 1446 1446 1446 1447 1447 1447 1446 1446 1446 1446 1446 1446 1446 1445 1445 1444 1443 1442 1442 1441 1441 1441 1440 1440 1440 1439 1438 1438 1438 1439 1440 1440 1441 1442 1444 1444 1446 1447 1447 1449 1450 1451 1452 1452 1452 1451 1452 1454 1454 1455 1455 1456 1456 1457 1457 1457 1457 1457 1457 1457 1457 1457 1457 1457 1457 1457 1456 1456 1456 1456 1456 1456 1456 1455 1454 1454 1454 1455 1455
1438 1439 1440 1441 1444 1445 1445 1445 1445 1445 1446 1446 1446 1445 1445 1445 1445 1445 1445 1445 1444 1444 1443 1443 1443 1442 1442 1441 1441 1441 1440 1440 1440 1439 1439 1439 1439 1439 1440 1441 1441 1442 1443 1444 1445 1445 1446 1448 1449 1450 1451 1451 1451 1452 1453 1453 1453 1454 1454 1455 1456 1456 1456 1456 1456 1456 1456 1456 1456 1456 1456 1456 1455 1455 1454 1454 1454 1454 1453 1453 1453 1453 1453 1452 1453 1453 1454
1441 1441 1442 1443 1444 1445 1445 1446 1447 1447 1447 1447 1446 1445 1445 1446 1445 1445 1445 1445 1444 1443 1443 1442 1442 1441 1441 1441 1440 1440 1440 1440 1439 1439 1439 1438 1438 1439 1439 1440 1440 1441 1442 1442 1443 1443 1444 1445 1446 1448 1449 1450 1451 1452 1453 1453 1454 1454 1454 1455 1455 1455 1455 1455 1454 1454 1455 1455 1455 1454 1454 1454 1453 1453 1452 1452 1452 1452 1452 1452 1452 1452 1451 1451 1452 1452 1453
1441 1442 1443 1444 1445 1446 1447 1448 1448 1448 1448 1448 1448 1447 1446 1446 1445 1445 1444 1444 1443 1443 1442 1441 1440 1439 1439 1439 1439 1439 1439 1438 1438 1438 1437 1437 1437 1438 1438 1438 1439 1440 1440 1440 1441 1441 1442 1443 1444 1445 1445 1447 1448 1449 1451 1454 1455 1454 1453 1453 1453 1453 1453 1453 1453 1453 1454 1453 1453 1453 1452 1452 1451 1451 1450 1450 1450 1451 1451 1450 1450 1451 1450 1451 1451 1452 1452
1442 1442 1442 1443 1444 1445 1446 1447 1447 1447 1447 1447 1447 1447 1446 1446 1445 1444 1443 1443 1442 1442 1441 1440 1439 1438 1437 1437 1437 1438 1438 1437 1437 1436 1436 1436 1436 1436 1437 1437 1438 1438 1438 1439 1439 1440 1440 1440 1441 1442 1442 1444 1445 1446 1448 1452 1453 1452 1452 1452 1451 1451 1451 1451 1452 1452 1452 1452 1452 1451 1451 1450 1449 1448 1448 1449 1449 1449 1450 1450 1450 1450 1450 1450 1451 1451 1451
1443 1443 1444 1444 1444 1445 1445 1446 1447 1447 1447 1446 1446 1446 1446 1445 1445 1444 1443 1442 1441 1440 1439 1439 1438 1437 1437 1436 1435 1435 1435 1435 1435 1435 1435 1435 1435 1435 1435 1436 1436 1436 1437 1437 1437 1438 1438 1438 1439 1440 1441 1443 1444 1445 1446 1448 1449 1449 1450 1450 1449 1449 1449 1449 1450 1451 1451 1451 1450 1450 1449 1448 1447 1447 1447 1448 1448 1449 1449 1449 1449 1449 1449 1450 1450 1451 1451
1446 1447 1448 1448 1447 1446 1446 1446 1446 1446 1446 1446 1446 1446 1445 1444 1443 1443 1442 1441 1440 1439 1438 1437 1437 1436 1435 1435 1434 1433 1433 1433 1433 1434 1434 1434 1433 1433 1433 1434 1434 1434 1435 1435 1435 1436 1437 1437 1438 1440 1441 1442 1443 1444 1444 1445 1446 1447 1447 1447 1447 1448 1448 1448 1449 1449 1449 1449 1449 1448 1447 1446 1446 1445 1446 1447 1447 1448 1448 1448 1448 1448 1448 1449 1450 1450 1450
1448 1448 1449 1448 1448 1447 1446 1446 1445 1445 1444 1444 1444 1444 1443 1443 1442 1442 1441 1440 1440 1439 1438 1437 1436 1435 1434 1433 1432 1432 1432 1431 1431 1431 1431 1431 1431 1430 1431 1431 1432 1432 1432 1433 1434 1435 1435 1436 1438 1440 1440 1440 1441 1442 1443 1443 1444 1444 1445 1446 1446 1446 1447 1447 1447 1448 1448 1448 1447 1446 1446 1445 1445 1445 1445 1446 1446 1447 1447 1447 1448 1448 1448 1448 1449 1449 1450
1447 1448 1448 1447 1447 1447 1446 1446 1445 1444 1443 1443 1442 1442 1441 1441 1441 1440 1440 1439 1439 1438 1437 1436 1435 1434 1433 1432 1431 1430 1430 1430 1429 1429 1428 1428 1428 1428 1428 1429 1429 1429 1430 1432 1434 1435 1434 1435 1437 1439 1439 1439 1440 1441 1441 1442 1442 1443 1444 1444 1445 1445 1445 1446 1446 1446 1446 1446 1446 1445 1445 1445 1445 1445 1445 1445 1445 1446 1446 1447 1447 1447 1448 1448 1448 1449 1449
1448 1448 1447 1447 1446 1446 1445 1445 1444 1444 1443 1443 1442 1441 1441 1440 1439 1439 1438 1438 1437 1437 1436 1435 1434 1433 1432 1431 1430 1429 1428 1428 1427 1427 1427 1426 1426 1426 1427 1427 1428 1428 1429 1431 1432 1433 1434 1435 1436 1437 1438 1438 1439 1439 1440 1440 1440 1441 1442 1443 1443 1444 1444 1444 1445 1445 1445 1445 1445 1444 1444 1444 1445 1445 1445 1445 1445 1445 1446 1446 1446 1447 1447 1447 1448 1448 1448
1447 1447 1447 1446 1446 1445 1444 1444 1443 1443 1442 1441 1441 1441 1440 1439 1438 1438 1437 1436 1436 1434 1433 1433 1432 1431 1431 1430 1429 1428 1427 1426 1425 1425 1425 1424 1424 1425 1425 1426 1428 1429 1429 1430 1430 1432 1433 1435 1436 1437 1437 1438 1438 1438 1439 1439 1440 1440 1440 1441 1442 1442 1443 1443 1444 1444 1444 1444 1444 1444 1444 1444 1444 1444 1444 1445 1445 1445 1445 1445 1445 1446 1446 1446 1446 1446 1447
1447 1446 1446 1446 1445 1445 1444 1444 1443 1442 1441 1441 1440 1440 1439 1438 1437 1437 1436 1435 1434 1432 1431 1430 1430 1429 1429 1428 1427 1426 1425 1424 1424 1425 1425 1424 1422 1422 1423 1425 1427 1429 1429 1430 1430 1431 1432 1434 1435 1436 1436 1437 1437 1438 1438 1438 1438 1438 1439 1440 1440 1441 1442 1442 1443 1443 1443 1443 1443 1443 1444 1444 1444 1444 1444 1444 1444 1444 1444 1444 1444 1444 1445 1445 1445 1445 1445
1446 1446 1446 1445 1445 1444 1444 1443 1443 1442 1441 1441 1440 1439 1438 1437 1437 1435 1434 1433 1432 1431 1429 1429 1428 1427 1427 1426 1425 1424 1423 1423 1422 1423 1424 1423 1421 1419 1421 1423 1425 1427 1428 1429 1429 1430 1432 1433 1434 1435 1435 1436 1436 1437 1437 1437 1437 1438 1439 1439 1440 1440 1441 1441 1442 1442 1442 1443 1443 1443 1443 1443 1443 1443 1443 1443 1443 1443 1443 1443 1443 1443 1443 1443 1443 1443 1443
1446 1446 1445 1445 1444 1444 1443 1442 1442 1442 1441 1440 1440 1439 1438 1437 1436 1435 1434 1433 1431 1430 1429 1428 1427 1427 1426 1425 1424 1423 1423 1422 1422 1421 1421 1421 1421 1420 1421 1423 1424 1425 1427 1428 1429 1430 1431 1433 1433 1434 1434 1435 1435 1435 1435 1436 1437 1438 1438 1439 1439 1440 1440 1441 1441 1441 1441 1442 1442 1442 1442 1442 1442 1442 1442 1442 1442 1442 1442 1442 1442 1441 1441 1442 1442 1442 1442
1446 1446 1445 1444 1444 1443 1442 1442 1441 1441 1440 1440 1439 1438 1437 1436 1435 1434 1433 1432 1431 1430 1429 1428 1428 1427 1426 1425 1424 1424 1423 1423 1423 1422 1421 1421 1423 1423 1423 1424 1424 1425 1426 1427 1429 1430 1431 1432 1433 1433 1434 1435 1435 1435 1436 1436 1437 1438 1438 1438 1438 1439 1439 1439 1440 1440 1440 1441 1441 1441 1441 1441 1441 1441 1441 1440 1440 1440 1440 1440 1440 1440 1440 1440 1440 1440 1441
1446 1445 1444 1444 1443 1442 1441 1441 1440 1439 1439 1439 1438 1437 1436 1435 1434 1433 1432 1431 1431 1430 1429 1429 1428 1427 1427 1426 1425 1425 1425 1424 1424 1424 1424 1424 1424 1424 1424 1424 1425 1425 1426 1427 1429 1430 1431 1432 1432 1433 1433 1434 1435 1435 1436 1436 1437 1437 1437 1437 1438 1438 1438 1439 1439 1439 1439 1439 1439 1439 1439 1439 1439 1439 1439 1438 1438 1438 1438 1438 1438 1438 1438 1439 1438 1438 1439
1446 1445 1444 1443 1443 1441 1441 1440 1439 1438 1438 1437 1436 1435 1435 1434 1433 1432 1432 1431 1431 1430 1430 1430 1429 1428 1427 1427 1426 1426 1426 1425 1425 1425 1426 1425 1425 1425 1425 1425 1425 1426 1427 1428 1429 1430 1430 1431 1432 1433 1433 1434 1434 1435 1435 1435 1436 1436 1436 1437 1437 1437 1438 1438 1438 1438 1438 1438 1437 1437 1437 1437 1437 1437 1436 1436 1435 1435 1435 1435 1435 1435 1436 1437 1437 1437 1437
1446 1445 1444 1443 1442 1441 1440 1440 1439 1438 1438 1437 1436 1436 1435 1434 1434 1433 1432 1432 1431 1431 1430 1430 1429 1428 1428 1427 1427 1426 1426 1426 1425 1425 1425 1425 1425 1425 1425 1425 1426 1426 1427 1428 1428 1429 1430 1431 1431 1432 1433 1433 1434 1434 1434 1434 1434 1435 1435 1435 1436 1436 1436 1436 1436 1436 1436 1436 1436 1436 1436 1435 1435 1435 1434 1434 1433 1433 1432 1432 1433 1433 1434 1434 1435 1435 1435
1446 1445 1445 1444 1443 1442 1441 1440 1440 1439 1439 1438 1437 1437 1436 1435 1435 1434 1433 1432 1432 1431 1430 1430 1429 1428 1428 1427 1426 1426 1426 1425 1425 1425 1425 1425 1425 1425 1425 1425 1426 1426 1426 1427 1428 1428 1429 1430 1431 1432 1432 1432 1433 1433 1433 1433 1433 1433 1434 1434 1435 1435 1435 1435 1435 1435 1435 1435 1435 1434 1434 1434 1433 1433 1432 1432 1432 1431 1431 1431 1431 1432 1432 1432 1433 1433 1433
1447 1446 1446 1445 1444 1443 1443 1442 1441 1440 1440 1439 1438 1438 1437 1436 1435 1434 1433 1432 1432 1431 1430 1430 1429 1428 1428 1427 1426 1426 1425 1425 1424 1424 1424 1424 1424 1425 1425 1426 1426 1426 1426 1427 1427 1427 1428 1429 1430 1430 1431 1431 1431 1432 1432 1432 1432 1433 1433 1433 1433 1433 1433 1433 1433 1433 1433 1433 1433 1433 1432 1432 1431 1431 1430 1430 1430 1429 1429 1429 1429 1430 1430 1431 1431 1431 1432
1447 1447 1446 1446 1445 1444 1444 1443 1442 1442 1441 1440 1439 1438 1437 1437 1436 1435 1434 1433 1432 1431 1430 1430 1429 1428 1428 1427 1426 1426 1425 1425 1424 1424 1424 1424 1424 1424 1424 1425 1426 1425 1425 1426 1426 1427 1427 1428 1428 1429 1430 1430 1430 1430 1431 1431 1431 1431 1431 1431 1431 1431 1431 1431 1432 1431 1431 1431 1431 1431 1430 1430 1429 1429 1428 1428 1428 1428 1427 1427 1427 1428 1429 1429 1430 1430 1431
1447 1446 1445 1445 1445 1444 1444 1444 1443 1442 1442 1441 1440 1439 1438 1437 1436 1435 1434 1433 1432 1431 1430 1430 1429 1428 1427 1426 1426 1425 1425 1424 1424 1424 1424 1424 1424 1424 1424 1424 1425 1424 1425 1425 1425 1426 1426 1427 1427 1428 1428 1428 1428 1429 1429 1429 1429 1429 1429 1430 1430 1430 1429 1430 1429 1429 1429 1429 1429 1429 1428 1428 1428 1427 1427 1427 1426 1426 1426 1426 1426 1426 1427 1428 1428 1429 1429
1445 1445 1444 1444 1444 1444 1443 1443 1443 1443 1442 1441 1440 1439 1437 1436 1436 1435 1434 1433 1432 1431 1430 1429 1428 1427 1427 1426 1425 1425 1424 1424 1424 1423 1423 1423 1423 1423 1423 1423 1423 1423 1424 1424 1424 1425 1425 1425 1426 1426 1426 1426 1427 1427 1427 1427 1428 1428 1428 1428 1428 1428 1427 1427 1427 1427 1427 1427 1427 1427 1426 1426 1425 1425 1425 1425 1425 1424 1424 1424 1424 1424 1425 1426 1426 1427 1427
1445 1444 1444 1443 1443 1443 1442 1442 1442 1442 1441 1440 1439 1438 1437 1436 1435 1434 1433 1433 1432 1431 1429 1429 1428 1427 1426 1425 1425 1424 1424 1423 1423 1423 1422 1422 1422 1422 1422 1422 1422 1423 1423 1423 1423 1424 1424 1424 1424 1424 1425 1425 1425 1425 1425 1425 1426 1426 1426 1426 1426 1425 1425 1425 1425 1425 1425 1425 1424 1424 1424 1423 1423 1423 1423 1422 1422 1422 1422 1422 1422 1422 1423 1423 1424 1424 1425
1445 1444 1444 1443 1443 1442 1441 1441 1441 1441 1440 1439 1438 1437 1436 1435 1434 1433 1432 1432 1431 1430 1429 1428 1427 1426 1425 1425 1424 1423 1423 1422 1422 1422 1421 1421 1421 1421 1421 1421 1421 1421 1422 1422 1422 1422 1422 1422 1422 1422 1423 1423 1423 1423 1423 1423 1423 1423 1423 1423 1423 1423 1423 1423 1423 1423 1423 1423 1422 1421 1421 1421 1421 1421 1420 1420 1420 1420 1420 1419 1420 1420 1420 1421 1421 1422 1423